Wind_Speed
21 21 22 22 22 23 23 24 24 25 26 27 28 28 30 31 32 32 32 33 34 34 33 33 32 32 32 32 32 32 33 34 34 31 28 28 30 31 30 29 28 28 28 27 26 25 24 23 25 26 26 27 27 27 27 26 25 26 27 27 27 26 23
22 22 23 23 24 25 25 26 27 28 29 30 31 32 33 33 33 34 35 35 35 36 36 36 34 34 34 34 34 33 33 33 34 34 32 29 28 29 30 30 29 28 28 27 27 26 25 26 27 27 27 26 25 24 23 23 23 24 25 26 25 23 20
23 24 25 26 27 28 29 30 31 33 34 35 37 38 39 39 39 40 40 40 39 39 39 39 38 37 37 35 35 35 34 33 33 33 34 32 29 28 29 29 28 28 27 27 27 27 26 27 27 27 26 26 23 21 21 21 21 22 23 24 23 21 18
24 25 26 28 29 30 32 34 35 37 39 40 42 43 44 45 45 46 46 47 46 45 44 43 41 40 38 37 36 35 35 34 33 32 33 34 32 29 28 27 27 27 27 27 27 27 27 26 26 25 25 24 22 20 19 19 19 20 21 22 21 19 18
26 27 28 30 32 33 35 37 39 41 42 44 45 47 48 50 50 51 51 51 51 50 48 47 45 42 40 39 38 36 35 35 34 32 32 34 35 32 29 27 26 26 26 25 25 26 26 25 24 23 23 23 21 19 19 18 18 19 19 20 18 17 17
28 30 31 33 35 37 38 40 41 42 44 45 47 49 51 53 54 55 56 56 54 52 50 49 47 45 43 42 41 39 37 36 35 33 32 33 36 36 32 29 27 27 25 24 24 25 25 24 23 22 22 23 21 18 17 17 17 17 17 17 16 16 17
31 32 34 36 38 40 41 43 44 45 47 48 49 51 53 55 57 58 59 59 57 54 51 49 48 46 45 43 42 41 38 36 36 34 32 33 35 36 34 31 30 29 27 26 25 26 25 24 23 22 22 21 19 17 16 15 16 16 15 14 14 15 16
33 34 36 38 40 41 43 44 46 48 50 52 53 54 57 59 60 61 61 59 56 53 49 47 47 46 45 44 43 41 38 36 35 34 33 33 33 35 35 34 32 31 30 28 27 26 26 26 24 23 22 20 17 15 15 14 15 14 13 12 13 15 15
33 35 37 39 41 42 44 46 48 51 53 55 57 58 60 62 63 63 60 56 52 48 45 43 45 46 46 46 45 42 39 36 35 35 35 32 31 33 34 35 34 32 31 30 28 27 26 26 24 22 21 18 15 14 14 14 14 12 11 11 12 14 14
33 36 38 40 41 43 46 48 52 54 57 58 60 61 63 63 62 60 56 52 47 43 40 40 42 46 48 48 47 43 39 36 35 34 35 32 30 31 31 30 29 28 27 28 29 27 26 25 24 22 19 16 14 13 13 13 12 11 9 10 11 12 10
34 37 39 41 43 45 48 51 55 57 59 60 61 62 62 61 58 54 51 47 44 40 38 37 39 43 46 48 49 45 39 37 36 33 33 33 31 30 28 25 23 24 25 26 27 27 26 23 23 21 18 15 13 12 13 13 11 9 8 9 9 9 7
35 38 40 42 45 47 50 54 57 59 61 62 62 62 60 57 53 49 47 44 42 39 37 36 36 39 42 45 48 47 42 39 37 32 29 32 32 28 27 25 23 25 26 26 26 26 24 23 21 19 16 14 13 13 13 12 10 9 8 8 7 6 5
37 39 42 44 47 49 52 55 58 61 62 63 62 60 57 53 49 47 45 43 41 38 36 35 34 36 37 39 42 46 44 41 39 33 26 29 32 30 28 27 26 26 27 26 26 25 23 22 21 18 16 13 13 13 13 12 10 8 7 6 6 5 4
38 41 44 46 49 51 54 57 60 62 63 62 60 57 53 49 47 46 45 43 40 37 34 33 32 33 33 34 35 39 43 43 41 37 26 23 31 33 30 29 27 26 26 25 26 25 23 22 20 18 16 13 13 14 13 12 10 8 7 6 6 5 4
39 42 44 47 50 52 55 58 60 63 63 61 58 54 50 46 45 45 44 41 38 36 33 31 31 30 30 30 30 31 37 41 42 40 28 21 29 33 29 29 27 25 25 25 26 25 22 21 20 18 15 14 14 14 13 12 11 9 8 8 6 5 3
39 42 45 48 51 53 56 59 62 63 63 60 56 51 47 45 45 45 43 40 37 34 33 31 29 28 27 26 25 25 30 36 42 43 30 20 27 31 27 27 27 25 25 26 25 24 21 21 20 17 15 15 14 14 14 13 11 10 10 9 7 5 3
40 43 46 49 52 55 57 60 63 64 62 59 54 49 46 45 45 44 42 38 35 33 31 29 28 27 26 24 22 21 24 31 40 42 30 17 21 26 25 26 26 25 25 25 25 24 22 21 20 17 16 16 15 15 16 14 13 12 11 9 7 5 3
41 44 47 50 53 56 59 61 63 64 61 57 51 47 44 44 44 44 42 38 35 32 30 28 26 25 24 24 21 19 20 28 35 39 34 22 18 20 22 25 26 26 24 24 26 25 23 22 20 18 17 16 16 17 17 16 15 14 12 10 8 5 4
42 45 48 51 54 57 59 61 63 63 60 55 49 45 43 43 44 44 42 38 35 32 29 26 25 23 22 22 20 17 18 22 27 34 39 30 18 17 21 24 26 26 24 24 26 26 24 22 20 18 17 17 18 18 18 17 17 15 13 11 8 6 4
42 46 49 52 55 58 60 62 63 63 59 54 48 44 43 43 43 44 42 38 35 32 29 26 24 22 21 20 18 16 15 16 21 30 38 31 18 15 20 23 24 25 24 26 28 27 25 23 21 19 18 19 20 19 19 19 17 16 14 11 9 7 5
43 46 49 52 56 59 61 63 64 62 58 53 48 44 42 42 43 44 43 39 35 33 30 26 23 21 21 20 17 14 13 14 20 27 33 28 16 12 18 21 22 23 25 28 28 26 25 23 21 20 19 21 21 20 20 20 18 16 14 12 10 8 5
43 46 49 53 56 59 61 63 64 62 58 53 48 44 42 42 43 44 44 40 36 33 30 26 23 20 20 19 15 12 9 10 16 23 27 22 12 11 18 21 21 22 24 28 27 25 25 24 22 20 21 22 22 21 22 21 19 17 15 13 11 8 6
44 47 50 53 56 59 62 63 64 63 59 53 48 44 42 42 42 43 44 42 37 33 31 28 24 21 19 18 14 12 12 10 11 17 23 19 12 11 17 19 18 19 22 25 25 25 26 24 22 21 22 23 22 22 23 22 20 18 15 13 11 9 7
44 47 50 53 56 60 62 63 64 63 60 55 49 45 42 41 42 43 44 43 38 33 31 28 25 22 19 16 12 13 17 17 14 13 17 16 12 12 15 17 17 19 22 24 24 26 26 24 22 22 24 24 22 23 24 22 20 18 16 14 12 10 8
44 47 50 53 56 59 62 63 64 64 61 56 50 46 42 41 41 42 44 44 39 34 30 28 25 22 19 16 11 11 17 21 18 12 10 12 12 13 13 15 18 22 23 23 25 26 25 23 22 24 25 24 23 24 23 21 20 17 15 14 12 10 9
44 47 49 52 55 59 61 63 64 64 63 59 53 47 43 41 41 42 43 44 41 34 30 28 25 21 19 15 10 9 14 20 21 16 11 11 14 13 11 13 19 23 23 23 25 26 24 22 24 25 25 23 23 24 23 21 19 17 15 14 12 11 9
44 46 49 52 55 58 61 63 64 64 63 61 55 49 45 42 41 41 42 44 42 35 29 27 24 20 17 14 9 7 11 19 24 21 14 11 12 11 10 14 20 23 23 24 25 26 23 22 25 26 24 23 23 23 22 20 19 18 16 15 13 11 10
44 46 48 51 54 58 61 63 64 65 64 62 58 52 46 43 41 41 42 44 42 35 29 26 23 20 16 12 8 6 8 15 23 24 17 11 12 10 10 15 21 22 23 24 26 25 22 23 26 26 23 22 22 22 21 20 19 18 16 15 13 11 10
43 45 48 50 53 56 60 62 64 64 64 63 60 55 49 45 42 41 42 44 42 35 28 25 23 19 15 10 7 5 6 12 19 22 16 10 11 11 10 16 21 22 23 25 26 24 22 24 27 25 23 22 21 21 20 19 19 18 16 15 13 12 11
43 45 47 49 52 55 58 61 63 64 64 64 61 57 51 47 43 41 42 44 41 34 27 24 22 19 14 9 6 4 6 10 16 19 11 7 11 12 11 16 21 22 23 26 27 24 22 24 27 26 23 22 21 21 20 19 18 18 16 15 13 12 11
43 45 47 49 51 53 57 60 63 64 65 65 63 59 54 49 45 42 42 44 41 33 26 23 22 19 13 8 5 3 5 8 14 17 10 8 13 13 11 15 20 22 23 25 27 25 23 25 28 27 24 23 22 21 20 19 18 18 17 15 13 12 11
43 45 46 48 50 52 55 59 63 65 66 66 65 62 57 52 48 43 43 44 40 32 26 22 22 20 14 9 6 4 2 5 13 16 10 8 13 13 10 13 18 21 23 25 26 25 23 25 28 28 25 23 23 22 21 20 19 19 17 15 13 12 12
42 44 46 48 49 51 54 58 61 64 66 67 67 64 59 55 50 45 43 43 39 31 25 22 22 21 15 9 5 4 2 4 12 15 10 8 12 12 9 12 16 20 23 24 26 25 23 25 28 28 27 24 23 23 22 21 20 19 18 16 14 13 12
42 44 46 48 49 51 53 56 60 63 66 67 67 67 63 58 52 47 44 43 39 31 25 22 22 21 16 9 4 4 4 4 11 15 11 9 12 13 10 12 16 20 23 25 26 25 24 24 27 29 28 26 24 24 24 22 21 20 18 16 14 13 12
42 44 46 47 49 51 52 55 59 62 65 67 67 68 66 61 55 49 44 43 40 33 26 22 22 22 17 10 4 3 3 4 10 14 12 10 12 14 13 13 15 19 23 25 26 25 24 24 26 29 29 28 26 25 25 23 22 20 19 17 15 14 13
41 43 45 47 49 50 52 54 57 61 64 66 66 67 67 63 58 52 46 43 41 36 28 23 23 23 20 11 4 1 3 5 9 13 14 12 11 13 16 15 14 17 22 25 26 26 25 25 26 29 30 29 28 27 26 25 23 21 20 18 16 15 14
41 43 45 46 48 49 51 53 56 59 62 65 66 66 66 64 61 55 49 44 42 38 32 25 23 23 21 14 6 1 3 6 9 12 15 14 11 12 16 17 15 16 20 25 27 27 27 26 26 28 31 31 30 28 27 26 25 23 21 19 17 16 15
Wind_Direction
348 347 345 344 342 339 337 335 332 330 327 325 322 320 318 315 314 312 310 307 304 303 301 298 298 297 295 293 292 292 292 294 294 290 284 279 278 276 275 275 275 276 277 278 278 279 281 283 283 283 284 285 286 288 291 293 296 299 299 297 296 299 305
349 348 347 345 343 341 339 336 333 331 328 325 322 320 317 313 311 308 305 302 300 299 297 296 295 294 293 291 288 287 287 287 289 289 286 281 278 275 273 273 273 274 275 276 276 275 274 276 279 281 283 285 286 288 292 296 300 301 299 297 299 303 306
350 349 347 345 343 341 338 336 334 331 328 326 322 320 317 314 311 307 304 301 298 295 293 292 291 290 289 287 285 284 284 283 283 284 284 281 277 274 272 270 270 271 272 273 274 273 271 271 275 279 283 286 288 291 295 299 302 301 298 297 299 302 301
350 349 347 344 342 340 338 335 333 330 327 324 321 319 316 313 310 307 304 301 298 295 292 290 288 287 285 283 281 281 280 280 280 279 279 279 276 272 271 269 268 268 269 271 272 272 271 271 274 280 285 288 291 294 296 301 302 298 295 296 298 299 296
350 348 346 344 342 340 338 335 332 329 326 324 321 318 315 313 309 307 304 301 298 295 292 288 285 283 279 276 276 276 276 277 277 275 274 275 274 270 268 268 267 265 266 269 271 272 273 273 275 279 282 284 290 294 297 300 299 294 292 294 295 294 293
349 348 346 344 342 339 337 334 332 329 327 324 321 317 314 311 308 305 303 300 299 296 292 288 284 280 275 270 269 271 272 272 272 273 271 271 271 269 266 265 266 265 265 266 268 271 272 272 272 273 274 281 288 292 295 295 293 289 288 290 291 291 293
349 348 346 344 341 339 337 335 333 331 328 325 321 317 313 309 306 304 302 300 298 296 292 287 282 278 272 267 265 266 267 267 268 270 270 269 268 268 266 263 263 264 264 264 265 268 269 268 268 269 272 280 287 290 292 290 284 283 284 287 288 289 293
348 347 345 342 340 339 338 336 335 333 330 327 323 318 313 309 306 305 303 302 300 296 292 286 279 274 268 263 260 259 260 263 265 268 268 267 266 265 264 262 261 262 263 263 263 264 267 266 264 266 270 277 283 286 287 281 276 278 280 283 286 289 294
347 345 343 342 341 340 339 338 337 335 332 329 325 319 315 311 309 308 307 305 302 298 291 283 276 270 264 258 254 253 254 256 258 262 263 261 262 262 261 261 259 260 263 263 261 260 263 265 262 262 267 273 278 280 277 272 271 274 276 280 287 291 294
345 344 343 343 343 342 341 341 340 338 335 331 325 320 316 313 312 311 310 309 306 301 293 282 273 268 263 257 251 248 249 249 248 254 258 256 258 259 261 261 257 258 263 265 262 257 256 260 261 260 264 268 273 273 267 266 265 265 269 279 286 289 288
345 345 345 345 344 344 344 343 342 340 336 331 326 321 318 317 316 315 314 313 310 305 297 287 277 270 264 259 253 247 244 242 240 246 255 255 254 255 256 258 260 263 266 268 266 258 252 254 256 257 260 263 266 265 259 258 256 254 265 278 281 278 276
346 346 346 346 346 345 345 345 343 341 337 332 327 324 322 321 320 319 317 315 312 308 302 294 285 278 271 264 258 250 242 238 236 241 253 254 252 253 252 253 260 264 265 267 266 258 250 251 253 252 254 256 257 255 251 249 244 244 259 270 263 256 261
347 348 348 348 347 346 346 345 344 341 337 333 329 327 325 324 324 323 320 317 314 310 304 299 293 287 281 273 264 255 244 237 235 239 251 255 250 248 249 250 253 257 260 263 262 256 247 248 250 247 246 247 246 246 244 237 232 237 247 245 233 232 252
349 349 349 348 347 347 347 346 345 342 338 335 331 329 327 327 327 325 322 319 316 312 307 302 297 292 288 281 273 262 249 239 235 235 244 254 248 243 245 247 248 251 255 258 257 251 243 242 244 242 240 238 236 239 235 225 224 228 224 215 211 218 242
349 349 349 349 348 348 348 348 346 344 340 336 333 331 330 330 330 328 325 322 319 316 311 305 300 295 292 286 280 271 254 241 235 234 238 249 247 243 242 241 242 246 251 253 254 249 240 237 237 236 234 230 231 233 224 216 218 214 203 200 203 212 230
349 349 349 350 350 350 350 349 348 346 342 338 335 333 333 333 333 332 330 326 322 319 313 309 304 299 294 289 285 277 259 240 232 234 237 247 249 245 241 237 236 241 246 250 250 243 234 231 232 230 226 223 226 224 214 212 211 199 193 197 202 207 212
349 349 350 351 351 351 351 351 350 347 343 340 337 335 335 336 337 336 333 329 326 321 315 311 309 302 297 294 289 281 259 238 233 234 233 242 251 242 235 233 233 235 240 247 247 236 225 225 226 223 219 219 220 213 207 209 202 190 190 197 202 201 197
350 351 351 352 352 352 353 353 351 349 345 341 338 336 336 338 340 340 337 333 330 325 319 314 311 306 299 295 292 282 254 236 236 236 230 238 258 247 233 232 232 233 236 243 245 234 221 219 219 214 214 215 212 205 203 203 195 187 188 194 199 196 190
351 352 352 353 353 354 354 355 353 350 346 342 339 337 337 339 342 344 341 337 334 329 324 318 314 309 302 296 292 278 251 238 244 242 234 238 259 254 237 230 228 232 237 242 243 232 217 214 211 207 210 211 205 200 200 198 191 186 187 190 195 192 194
351 352 353 353 354 355 356 356 355 351 347 344 340 338 339 340 343 346 344 340 336 333 329 323 318 313 306 302 291 271 245 234 246 247 238 240 256 254 239 231 226 229 235 241 241 228 213 208 203 201 207 207 200 196 196 194 189 186 185 187 190 190 198
352 353 353 354 355 356 358 358 356 353 349 345 342 339 339 342 345 348 347 343 339 336 334 328 324 318 312 309 294 266 240 232 247 249 240 239 250 243 233 232 230 230 234 240 236 220 208 203 197 197 204 202 196 193 192 190 188 186 184 185 186 186 197
352 353 353 354 356 357 359 360 358 354 351 347 344 341 341 343 346 349 349 346 341 338 337 333 328 323 319 315 295 256 220 219 243 247 242 243 256 239 228 232 233 229 232 236 229 212 203 198 192 195 201 198 192 189 189 188 186 185 184 184 183 182 192
352 353 354 355 356 358 0 1 360 356 353 349 346 343 342 344 347 349 350 348 343 340 339 337 333 328 326 321 297 247 213 207 233 244 244 251 264 243 229 232 234 228 228 229 218 204 198 193 190 195 197 194 190 187 187 186 184 185 184 184 182 180 188
353 354 355 356 357 359 1 2 1 358 355 352 349 346 343 344 347 349 351 350 346 341 341 340 338 334 330 327 305 254 228 224 233 240 242 247 251 234 223 226 232 233 227 216 204 196 193 189 190 193 193 191 189 186 185 184 184 185 184 184 182 181 186
354 354 355 357 358 0 2 4 3 0 357 354 351 348 345 345 347 349 351 351 348 343 341 341 340 338 334 330 312 264 239 231 227 223 231 244 244 234 225 222 227 227 217 202 193 191 189 187 190 191 189 190 189 185 183 182 183 185 186 186 184 182 185
354 355 356 357 359 1 3 5 4 3 359 356 353 351 348 346 347 349 351 351 349 345 343 343 343 340 338 337 320 276 251 238 226 214 218 234 235 236 234 224 220 214 201 191 188 186 185 188 190 188 188 190 189 185 183 182 184 187 188 188 187 184 186
354 355 356 358 359 1 4 5 6 5 2 359 356 353 351 348 348 349 351 351 350 347 344 344 345 343 342 342 332 296 262 241 225 218 222 223 219 230 236 220 211 202 192 188 185 181 183 188 188 187 189 191 188 185 184 183 186 190 190 189 189 186 188
354 355 357 358 360 2 4 6 7 6 4 1 358 356 353 351 349 350 351 352 351 349 346 346 347 348 348 347 344 324 278 246 228 224 232 227 206 214 228 218 207 196 189 187 181 179 184 188 187 188 191 191 190 187 185 187 190 192 192 190 190 189 191
354 355 357 359 1 2 4 6 7 7 5 3 1 358 356 353 351 351 352 352 352 350 349 348 349 351 352 351 355 348 291 253 230 226 235 228 203 206 223 217 205 195 189 185 179 178 185 188 188 190 191 192 192 190 189 191 195 196 194 191 192 192 194
354 356 357 359 1 2 4 6 8 9 7 6 3 0 358 356 354 353 353 353 354 353 351 350 351 354 355 354 1 352 295 256 227 222 229 216 202 210 222 215 204 196 192 185 177 178 186 189 190 191 192 194 194 192 193 196 199 200 197 194 194 195 196
355 356 357 359 0 2 4 6 8 9 10 9 6 3 1 358 357 356 355 355 356 356 355 354 355 358 359 356 8 5 304 258 222 217 218 197 197 207 220 217 205 198 194 186 179 180 186 189 192 193 193 195 196 195 196 199 203 204 200 196 197 198 200
355 356 357 358 359 1 3 5 7 9 10 11 9 6 3 1 0 359 358 358 359 359 359 358 358 1 3 358 11 40 336 255 220 213 212 193 192 201 218 222 209 200 196 189 183 184 187 190 194 195 194 196 198 198 199 201 205 207 203 198 199 200 203
355 356 356 357 359 1 3 5 7 8 10 11 12 10 7 4 3 2 1 1 3 4 4 2 360 2 5 2 14 64 89 226 216 212 210 190 184 192 213 225 212 201 198 193 188 189 190 191 194 196 197 198 200 200 200 202 206 208 205 200 199 201 205
355 355 356 357 358 1 3 5 7 8 9 10 12 12 11 7 5 4 3 4 6 8 9 6 3 4 7 6 18 83 116 195 212 214 213 191 178 183 202 221 215 202 198 196 193 193 195 195 196 197 198 200 202 203 203 204 206 208 207 203 200 201 204
354 355 355 357 358 360 2 4 6 8 9 10 11 11 12 10 8 6 5 6 8 11 13 10 6 6 9 9 16 89 127 186 210 216 217 199 181 183 196 212 215 204 197 196 197 198 199 199 198 199 200 201 204 205 205 205 206 208 207 205 201 201 205
354 355 355 356 358 359 1 3 5 7 9 10 10 10 11 11 9 7 7 7 8 12 15 14 10 8 10 10 6 83 135 177 204 215 218 209 189 185 195 205 210 205 198 197 198 201 203 203 201 201 201 202 204 207 207 206 207 208 208 206 203 203 206
353 354 355 356 357 359 0 2 5 7 8 9 10 10 10 11 10 8 7 7 8 11 14 16 14 10 10 10 0 345 152 176 200 213 218 217 202 190 196 203 208 207 202 198 200 203 206 206 205 203 202 203 205 207 208 208 208 209 209 207 205 205 207
Height
5805 5803 5801 5800 5798 5796 5794 5793 5790 5788 5786 5784 5782 5779 5777 5774 5772 5770 5768 5765 5763 5761 5758 5756 5754 5752 5750 5749 5747 5745 5743 5741 5739 5740 5740 5739 5738 5737 5736 5736 5736 5735 5735 5735 5735 5735 5734 5732 5730 5731 5731 5730 5730 5729 5728 5727 5727 5726 5725 5723 5722 5720 5719
5804 5802 5800 5799 5797 5795 5793 5791 5789 5786 5784 5782 5779 5777 5774 5772 5770 5768 5765 5763 5760 5757 5754 5752 5750 5748 5747 5745 5743 5741 5739 5737 5735 5734 5734 5734 5734 5733 5732 5732 5731 5731 5731 5731 5731 5732 5732 5730 5728 5728 5728 5727 5727 5726 5725 5724 5724 5723 5721 5720 5719 5718 5717
5803 5801 5799 5797 5795 5793 5790 5788 5786 5783 5781 5778 5776 5773 5770 5768 5765 5763 5760 5757 5755 5753 5750 5748 5746 5744 5743 5741 5739 5737 5734 5733 5731 5729 5728 5729 5729 5729 5728 5728 5727 5727 5727 5727 5728 5728 5729 5728 5727 5726 5725 5724 5723 5723 5722 5721 5721 5720 5718 5717 5716 5716 5716
5802 5800 5797 5795 5793 5791 5788 5786 5783 5780 5777 5774 5771 5768 5765 5762 5760 5757 5754 5751 5748 5746 5744 5742 5740 5739 5737 5735 5733 5732 5730 5728 5727 5726 5724 5724 5724 5725 5724 5724 5723 5723 5723 5724 5724 5725 5725 5726 5725 5723 5722 5720 5720 5719 5719 5719 5718 5717 5716 5715 5715 5715 5715
5800 5798 5796 5793 5791 5788 5786 5783 5780 5777 5774 5770 5767 5763 5760 5756 5753 5750 5747 5743 5740 5738 5736 5734 5733 5732 5731 5728 5726 5725 5724 5723 5722 5721 5721 5720 5719 5720 5720 5720 5720 5720 5720 5720 5720 5721 5722 5723 5723 5721 5719 5717 5717 5717 5716 5716 5715 5714 5713 5713 5714 5714 5713
5799 5796 5794 5791 5789 5786 5783 5780 5777 5774 5771 5767 5763 5759 5755 5750 5746 5742 5739 5735 5731 5729 5726 5724 5723 5723 5723 5720 5719 5719 5718 5718 5717 5716 5716 5716 5715 5715 5716 5716 5716 5716 5716 5717 5717 5717 5718 5720 5719 5718 5717 5715 5714 5714 5714 5713 5712 5712 5712 5712 5712 5712 5712
5796 5794 5791 5789 5786 5783 5780 5776 5773 5769 5766 5762 5758 5753 5748 5743 5738 5734 5730 5726 5722 5719 5717 5714 5713 5713 5713 5712 5712 5712 5711 5711 5711 5711 5712 5712 5711 5711 5711 5712 5712 5712 5712 5713 5714 5714 5715 5716 5715 5714 5713 5713 5712 5712 5711 5710 5710 5709 5710 5710 5711 5711 5710
5794 5792 5789 5786 5783 5780 5776 5773 5769 5765 5760 5755 5751 5746 5740 5734 5729 5724 5719 5715 5712 5709 5707 5705 5703 5702 5702 5702 5702 5703 5704 5705 5705 5706 5707 5706 5706 5706 5706 5707 5707 5707 5708 5708 5709 5710 5711 5712 5712 5711 5710 5709 5709 5709 5709 5708 5707 5707 5708 5708 5709 5709 5709
5793 5790 5787 5784 5781 5777 5773 5769 5764 5759 5754 5748 5743 5737 5731 5724 5718 5712 5708 5704 5701 5699 5697 5695 5693 5692 5692 5692 5693 5694 5696 5698 5699 5700 5701 5700 5700 5700 5701 5702 5702 5703 5704 5704 5705 5705 5706 5707 5708 5707 5707 5707 5707 5707 5706 5706 5705 5705 5706 5707 5708 5708 5707
5791 5789 5785 5782 5778 5774 5769 5765 5759 5754 5748 5741 5735 5728 5721 5714 5708 5702 5698 5694 5692 5689 5687 5685 5684 5682 5682 5682 5684 5685 5688 5691 5692 5693 5695 5695 5694 5695 5696 5697 5698 5699 5700 5699 5700 5701 5702 5703 5704 5704 5704 5704 5704 5704 5704 5704 5704 5704 5704 5705 5706 5706 5706
5790 5786 5783 5779 5775 5771 5766 5760 5755 5749 5742 5735 5727 5720 5712 5706 5700 5694 5690 5686 5683 5680 5678 5677 5675 5673 5673 5673 5675 5677 5680 5682 5684 5686 5688 5688 5688 5689 5691 5692 5693 5694 5695 5696 5696 5696 5697 5699 5700 5700 5701 5701 5701 5702 5702 5702 5702 5702 5703 5704 5705 5705 5704
5788 5784 5780 5776 5772 5767 5762 5756 5750 5743 5736 5728 5719 5711 5704 5698 5693 5688 5683 5679 5676 5673 5671 5669 5668 5666 5665 5665 5666 5669 5672 5675 5676 5679 5680 5681 5682 5684 5686 5687 5689 5690 5691 5692 5692 5692 5694 5695 5696 5697 5698 5698 5699 5700 5700 5700 5700 5700 5701 5702 5703 5703 5703
5785 5781 5777 5773 5769 5764 5758 5752 5745 5738 5729 5721 5712 5704 5698 5692 5688 5683 5677 5673 5670 5667 5665 5664 5662 5661 5659 5659 5659 5661 5664 5668 5670 5672 5675 5676 5677 5679 5680 5682 5684 5686 5687 5688 5688 5689 5690 5692 5693 5694 5695 5696 5697 5697 5698 5698 5698 5699 5700 5701 5702 5702 5702
5783 5779 5775 5770 5766 5761 5754 5748 5740 5732 5724 5715 5707 5699 5693 5688 5683 5678 5673 5668 5664 5662 5660 5659 5657 5655 5654 5653 5653 5653 5657 5661 5664 5666 5669 5671 5672 5673 5676 5677 5679 5681 5683 5684 5684 5685 5687 5688 5689 5691 5692 5693 5695 5695 5696 5696 5697 5697 5698 5699 5700 5701 5701
5781 5777 5773 5769 5763 5758 5751 5745 5737 5728 5719 5710 5702 5695 5689 5684 5679 5674 5668 5664 5660 5657 5655 5653 5651 5650 5648 5647 5647 5648 5650 5655 5658 5660 5664 5666 5666 5668 5671 5672 5674 5677 5679 5680 5681 5682 5684 5685 5687 5688 5690 5691 5692 5693 5694 5694 5695 5696 5697 5698 5699 5699 5699
5780 5776 5771 5766 5761 5755 5748 5741 5733 5724 5714 5706 5698 5691 5685 5681 5676 5670 5665 5660 5656 5653 5650 5648 5646 5645 5643 5642 5642 5643 5644 5648 5652 5654 5658 5660 5661 5663 5666 5668 5670 5673 5674 5676 5677 5679 5681 5682 5684 5686 5687 5689 5690 5691 5692 5693 5693 5694 5695 5696 5697 5698 5698
5778 5773 5769 5763 5758 5751 5744 5737 5728 5719 5710 5701 5694 5687 5682 5678 5672 5667 5662 5657 5654 5650 5647 5644 5642 5641 5639 5638 5638 5639 5640 5643 5646 5649 5652 5654 5655 5658 5662 5664 5666 5669 5670 5672 5674 5675 5677 5679 5681 5683 5685 5686 5687 5689 5690 5691 5692 5692 5694 5695 5695 5696 5697
5776 5771 5765 5760 5754 5748 5741 5733 5724 5715 5706 5698 5691 5685 5680 5675 5670 5664 5659 5654 5651 5647 5644 5641 5639 5637 5636 5635 5635 5635 5636 5639 5642 5644 5646 5649 5650 5653 5658 5661 5663 5665 5667 5669 5670 5672 5674 5676 5679 5681 5683 5684 5686 5687 5688 5689 5690 5691 5692 5693 5694 5695 5696
5773 5768 5763 5757 5752 5745 5738 5730 5721 5711 5702 5695 5688 5682 5677 5672 5668 5662 5656 5651 5647 5644 5641 5639 5637 5635 5633 5632 5632 5632 5633 5636 5639 5640 5642 5645 5647 5649 5653 5657 5659 5661 5663 5665 5667 5669 5671 5673 5676 5678 5681 5682 5684 5685 5687 5688 5689 5690 5691 5692 5693 5694 5696
5771 5765 5760 5755 5749 5742 5735 5726 5717 5708 5699 5691 5685 5680 5675 5670 5665 5660 5655 5649 5645 5641 5638 5636 5634 5632 5631 5630 5629 5629 5630 5633 5635 5636 5638 5642 5644 5645 5648 5652 5655 5658 5660 5662 5664 5665 5668 5670 5673 5676 5679 5681 5682 5684 5685 5686 5688 5689 5690 5691 5692 5693 5695
5768 5763 5758 5752 5746 5739 5731 5723 5714 5705 5696 5689 5683 5677 5673 5668 5663 5658 5652 5647 5643 5639 5636 5634 5632 5630 5628 5628 5627 5627 5629 5632 5633 5633 5636 5640 5641 5641 5645 5649 5651 5654 5657 5658 5660 5662 5665 5668 5670 5673 5676 5678 5680 5682 5684 5685 5686 5688 5689 5690 5691 5693 5694
5766 5761 5755 5749 5743 5736 5728 5720 5711 5702 5694 5687 5680 5675 5670 5665 5661 5656 5651 5645 5641 5637 5634 5632 5630 5628 5627 5626 5625 5626 5628 5630 5631 5632 5634 5637 5638 5639 5642 5646 5649 5651 5654 5655 5657 5660 5663 5666 5668 5671 5674 5676 5679 5680 5682 5684 5685 5687 5688 5689 5691 5692 5694
5764 5758 5753 5747 5741 5734 5726 5718 5709 5700 5692 5685 5679 5673 5668 5663 5659 5654 5649 5644 5639 5636 5633 5630 5628 5626 5625 5624 5623 5624 5625 5626 5628 5630 5632 5634 5636 5638 5641 5644 5646 5649 5651 5653 5655 5658 5661 5664 5666 5670 5672 5675 5677 5679 5680 5682 5684 5686 5687 5689 5690 5692 5693
5761 5756 5750 5745 5738 5732 5724 5716 5707 5699 5691 5683 5677 5671 5666 5662 5657 5653 5648 5643 5638 5634 5631 5629 5626 5625 5624 5623 5622 5622 5623 5624 5626 5629 5631 5633 5635 5637 5640 5642 5645 5647 5649 5651 5654 5657 5660 5662 5665 5668 5671 5674 5676 5678 5679 5681 5683 5685 5687 5688 5690 5691 5692
5759 5754 5748 5743 5737 5730 5723 5715 5706 5698 5689 5682 5676 5670 5665 5660 5656 5652 5647 5641 5637 5633 5630 5627 5625 5623 5622 5621 5621 5621 5621 5622 5625 5629 5631 5633 5635 5637 5639 5641 5643 5644 5646 5649 5653 5656 5659 5661 5664 5667 5670 5673 5675 5676 5678 5680 5683 5685 5687 5688 5689 5691 5692
5757 5752 5747 5741 5735 5729 5722 5714 5706 5697 5689 5681 5674 5668 5663 5658 5654 5650 5646 5641 5636 5632 5629 5627 5624 5622 5621 5620 5620 5620 5620 5621 5625 5628 5631 5632 5634 5636 5638 5639 5641 5643 5645 5649 5652 5655 5658 5661 5663 5666 5669 5672 5674 5676 5678 5680 5682 5684 5686 5688 5689 5690 5691
5756 5751 5745 5740 5734 5727 5720 5713 5705 5697 5688 5680 5673 5668 5662 5657 5653 5649 5645 5640 5635 5631 5628 5626 5624 5622 5620 5619 5619 5619 5620 5621 5624 5627 5630 5632 5634 5636 5637 5638 5640 5642 5645 5648 5651 5654 5657 5660 5663 5666 5668 5671 5673 5675 5677 5679 5682 5684 5686 5687 5688 5690 5691
5754 5749 5744 5738 5732 5726 5719 5712 5704 5696 5688 5681 5674 5667 5662 5657 5652 5648 5644 5639 5634 5630 5627 5625 5623 5621 5620 5619 5618 5619 5620 5621 5624 5627 5630 5631 5633 5635 5636 5637 5639 5641 5644 5648 5651 5654 5657 5660 5663 5665 5668 5670 5672 5674 5677 5679 5682 5684 5685 5687 5688 5690 5691
5753 5748 5743 5737 5732 5725 5719 5712 5705 5697 5689 5681 5673 5666 5661 5656 5651 5647 5643 5638 5633 5629 5626 5624 5622 5621 5620 5618 5618 5618 5619 5621 5624 5627 5630 5631 5633 5635 5636 5638 5639 5641 5644 5647 5650 5653 5656 5659 5662 5665 5667 5669 5672 5674 5676 5679 5681 5683 5685 5686 5688 5689 5690
5752 5747 5742 5736 5731 5725 5719 5713 5705 5698 5690 5682 5674 5667 5661 5655 5651 5646 5642 5638 5633 5628 5626 5623 5622 5621 5620 5619 5618 5618 5619 5621 5624 5627 5630 5631 5633 5635 5637 5637 5639 5641 5643 5646 5649 5652 5656 5659 5662 5664 5666 5669 5671 5673 5676 5678 5681 5683 5685 5686 5687 5688 5689
5751 5746 5741 5736 5731 5725 5719 5713 5706 5699 5692 5684 5675 5668 5661 5655 5651 5646 5642 5637 5632 5628 5625 5623 5621 5620 5619 5619 5618 5618 5619 5621 5624 5627 5630 5631 5633 5635 5636 5637 5639 5641 5643 5646 5649 5652 5655 5658 5661 5663 5665 5668 5670 5673 5675 5678 5680 5683 5684 5686 5687 5688 5689
5749 5745 5740 5735 5730 5725 5719 5712 5705 5699 5692 5684 5677 5669 5662 5656 5650 5646 5642 5637 5632 5627 5625 5623 5621 5620 5619 5619 5619 5619 5620 5621 5624 5627 5630 5631 5632 5635 5636 5637 5639 5641 5643 5646 5649 5651 5654 5656 5659 5662 5665 5667 5669 5672 5675 5677 5680 5682 5684 5685 5686 5687 5688
5748 5744 5739 5734 5729 5724 5718 5712 5705 5699 5692 5685 5678 5670 5663 5656 5650 5646 5642 5637 5632 5627 5625 5623 5622 5621 5620 5619 5619 5619 5620 5621 5624 5627 5629 5630 5632 5634 5636 5637 5639 5640 5643 5646 5648 5651 5653 5655 5658 5661 5664 5666 5668 5671 5674 5676 5679 5681 5683 5684 5686 5687 5688
5747 5742 5738 5733 5728 5723 5717 5712 5706 5699 5692 5685 5678 5671 5664 5657 5651 5646 5642 5638 5633 5628 5625 5623 5622 5621 5620 5619 5619 5619 5620 5621 5623 5626 5629 5630 5631 5633 5636 5637 5638 5640 5643 5645 5648 5650 5653 5655 5657 5660 5663 5666 5668 5670 5673 5675 5678 5680 5682 5683 5685 5686 5687
5746 5741 5737 5732 5727 5722 5717 5711 5705 5699 5692 5685 5678 5671 5664 5658 5652 5647 5642 5638 5634 5630 5627 5625 5623 5622 5621 5620 5619 5619 5620 5621 5623 5626 5628 5630 5631 5633 5635 5637 5638 5640 5642 5645 5647 5650 5652 5654 5657 5659 5662 5665 5667 5670 5672 5674 5677 5679 5681 5682 5684 5685 5686
5745 5740 5736 5731 5726 5721 5716 5711 5705 5699 5693 5686 5679 5672 5665 5658 5652 5647 5643 5639 5635 5631 5628 5626 5624 5622 5621 5621 5620 5620 5620 5621 5623 5626 5628 5629 5631 5633 5635 5637 5638 5639 5642 5644 5646 5649 5651 5653 5656 5658 5661 5664 5666 5669 5671 5673 5676 5678 5680 5681 5683 5684 5685
5744 5740 5735 5730 5725 5721 5716 5710 5705 5699 5693 5687 5680 5673 5666 5659 5653 5648 5644 5640 5636 5633 5630 5628 5626 5624 5622 5621 5621 5621 5621 5621 5623 5625 5627 5629 5631 5632 5634 5636 5638 5639 5641 5643 5645 5647 5650 5652 5655 5657 5659 5662 5665 5667 5670 5672 5674 5677 5678 5680 5681 5683 5684